The Dalles, WA

4:56 AM PST on November 22, 2019 (GMT -0800)
Columbia Gorge Regional-The Dalles

Weather History for KDLS - May, 2019

Change the Weather History Date:

Sunday, May 26, 2019

  Actual Average Record
Temperature  
Mean Temperature 62 °F -  
Max Temperature 77 °F 75 °F 93 °F (2001)
Min Temperature 48 °F 50 °F 37 °F (1964)
Degree Days  
Heating Degree Days 2    
Growing Degree Days 12 (Base 50)    
Moisture  
Dew Point 49 °F    
Average Humidity 68    
Maximum Humidity 90    
Minimum Humidity 38    
Precipitation  
Precipitation 0.08 in - - ()
Sea Level Pressure  
Sea Level Pressure 29.80 in    
Wind  
Wind Speed 6 mph (NW)    
Max Wind Speed 13 mph    
Max Gust Speed 20 mph    
Visibility 10 miles    
Events Rain    
Averages and records for this station are not official NWS values.
T = Trace of Precipitation, MM = Missing Value Source: NWS Daily Summary

Daily Weather History Graph

Daily Weather History Graph

Search for Another Location

Airport or City:

Astronomy

May. 26, 2019 Rise Set
Actual Time 5:23 AM PDT 8:40 PM PDT
Civil Twilight 4:46 AM PDT 9:17 PM PDT
Nautical Twilight 3:59 AM PDT 10:04 PM PDT
Astronomical Twilight 3:00 AM PDT 11:04 PM PDT
Moon 2:09 AM PDT (5/26) 12:33 PM PDT (5/26)
Length of Visible Light 16h 30m
Length of Day
15h 17m
Waning Gibbous, 49% of the Moon is Illuminated
May 26
Waning Gibbous
Jun 3
New
Jun 9
First Quarter
Jun 17
Full
Jun 25
Last Quarter

Hourly Weather History & Observations

Time (PDT) Temp. Dew Point Humidity Pressure Visibility Wind Dir Wind Speed Gust Speed Precip Events Conditions
12:53 AM 52.0 °F 43.0 °F 71% 29.80 in 10.0 mi NNW 12.7 mph - N/A   Overcast
1:53 AM 51.1 °F 44.1 °F 77% 29.79 in 10.0 mi NNW 9.2 mph 19.6 mph 0.00 in Rain Light Rain
2:53 AM 50.0 °F 44.1 °F 80% 29.78 in 10.0 mi NNW 5.8 mph - 0.00 in   Partly Cloudy
3:53 AM 50.0 °F 46.0 °F 86% 29.78 in 10.0 mi West 3.5 mph - 0.01 in   Overcast
4:53 AM 48.9 °F 46.0 °F 90% 29.78 in 10.0 mi Calm Calm - N/A   Mostly Cloudy
5:53 AM 48.9 °F 45.0 °F 86% 29.79 in 10.0 mi Calm Calm - N/A   Overcast
6:53 AM 51.1 °F 46.0 °F 83% 29.80 in 10.0 mi Calm Calm - N/A   Overcast
7:53 AM 52.0 °F 46.9 °F 83% 29.80 in 10.0 mi Calm Calm - N/A   Overcast
8:53 AM 57.0 °F 48.0 °F 72% 29.80 in 10.0 mi Variable 3.5 mph - N/A   Partly Cloudy
9:53 AM 60.1 °F 48.9 °F 67% 29.80 in 10.0 mi NW 3.5 mph - N/A   Scattered Clouds
10:53 AM 61.0 °F 50.0 °F 67% 29.81 in 10.0 mi NW 4.6 mph - N/A   Overcast
11:53 AM 64.0 °F 50.0 °F 60% 29.81 in 10.0 mi East 4.6 mph - N/A   Overcast
12:53 PM 66.9 °F 50.0 °F 54% 29.80 in 10.0 mi Calm Calm - N/A   Overcast
1:53 PM 69.1 °F 52.0 °F 54% 29.79 in 10.0 mi NNW 8.1 mph - N/A   Overcast
2:53 PM 73.0 °F 53.1 °F 49% 29.77 in 10.0 mi NW 8.1 mph - N/A   Partly Cloudy
3:53 PM 75.9 °F 48.9 °F 38% 29.76 in 10.0 mi West 8.1 mph - N/A   Scattered Clouds
4:53 PM 77.0 °F 51.1 °F 40% 29.76 in 10.0 mi NW 6.9 mph - N/A   Mostly Cloudy
5:53 PM 72.0 °F 48.9 °F 44% 29.77 in 10.0 mi North 5.8 mph - N/A   Scattered Clouds
6:53 PM 72.0 °F 50.0 °F 46% 29.78 in 10.0 mi Calm Calm - N/A   Overcast
7:53 PM 64.0 °F 55.0 °F 73% 29.82 in 5.0 mi East 3.5 mph - 0.05 in Rain Light Rain
8:53 PM 62.1 °F 55.9 °F 80% 29.83 in 10.0 mi Variable 3.5 mph - 0.01 in   Overcast
9:53 PM 63.0 °F 54.0 °F 72% 29.85 in 10.0 mi West 3.5 mph - N/A   Overcast
10:53 PM 60.1 °F 55.9 °F 86% 29.86 in 7.0 mi West 8.1 mph - 0.01 in Rain Light Rain
11:53 PM 60.1 °F 54.0 °F 80% 29.87 in 10.0 mi NW 4.6 mph - 0.00 in   Overcast